Location: Peach Mountain Observatory
(42.3967°N, 83.9367°W)
Time: 21:28:12
(UTC-05:00)

S-56A Canister/Altair - Visible Passes

Search period start: 26 January 2020 00:00
Search period end: 05 February 2020 00:00
Orbit: 634 x 2498 km, 38.9° (Epoch: 26 January)

Date Brightness Start Highest point End Pass type
(mag) Time Alt. Az. Time Alt. Az. Time Alt. Az.
26 Jan 9.4 18:57:48 10° SSW 19:04:15 25° SSE 19:07:34 17° ESE visible
26 Jan 9.5 21:01:31 10° WSW 21:05:00 28° SW 21:05:00 28° SW visible
27 Jan 9.8 18:24:47 10° SSW 18:31:31 24° SSE 18:36:35 10° ESE visible
27 Jan 8.6 20:28:21 10° WSW 20:34:14 44° SSW 20:34:14 44° SSW visible
28 Jan 8.3 19:55:08 10° SW 20:02:42 48° SSE 20:03:27 45° SE visible
28 Jan 10.5 22:00:18 10° W 22:00:53 12° W 22:00:53 12° W visible
29 Jan 8.7 19:21:51 10° SW 19:30:00 46° SSE 19:32:39 30° ESE visible
29 Jan 9.8 21:27:10 10° W 21:30:05 25° WSW 21:30:05 25° WSW visible
30 Jan 9.0 18:48:31 10° SW 18:57:14 44° SSE 19:01:50 18° E visible
30 Jan 8.8 20:53:56 10° WSW 20:59:16 44° WSW 20:59:16 44° WSW visible
31 Jan 9.3 18:15:08 10° SW 18:24:25 43° SSE 18:30:44 10° E visible
31 Jan 8.1 20:20:36 10° WSW 20:28:26 64° S 20:28:26 64° S visible
01 Feb 8.2 19:47:11 10° WSW 19:55:48 64° S 19:57:36 46° ESE visible
01 Feb 10.2 21:53:05 10° W 21:55:02 19° W 21:55:02 19° W visible
02 Feb 8.6 19:13:42 10° WSW 19:23:01 64° S 19:26:45 27° E visible
02 Feb 9.4 21:19:49 10° W 21:24:12 33° WSW 21:24:12 33° WSW visible
03 Feb 8.9 18:40:09 10° WSW 18:50:11 63° S 18:55:55 15° E visible
03 Feb 8.5 20:46:28 10° W 20:53:21 56° SW 20:53:21 56° SW visible
04 Feb 9.1 18:06:34 10° WSW 18:17:18 62° SSE 18:24:18 10° E visible
04 Feb 8.1 20:13:02 10° W 20:21:36 65° S 20:22:30 59° SSE visible
04 Feb 10.6 22:19:14 10° W 22:19:56 12° W 22:19:56 12° W visible
